Home > Weather > Kolonia > Past weeks

Flag for Micronesia Weather for the Past 2 Weeks in Kolonia, Pohnpei, Micronesia

Now
82 °F

Partly cloudy.


Feels Like: 88 °F
Forecast: 81 / 84 °F
Wind: 7 mph from East

Location: Pohnpei

Current Time: Feb 6, 2016 at 9:03:31 PM

Latest Report: Feb 6, 2016 at 7:51 PM


Visibility: 15 mi

Pressure: 29.83 "Hg

Humidity: 77%

Dew point: 74 °F

Location of KoloniaLocation

Historic Weather in Kolonia — Graph

°F

Kolonia Temperature Yesterday

Maximum temperature yesterday: 86 °F (at 4:51 PM)
Minimum temperature yesterday: 80 °F (at 6:57 AM)
Average temperature yesterday: 82 °F

High & Low Weather Summary for the Past Weeks

 TemperatureHumidityPressure
High87 °F (Feb 2, 12:51 PM)96% (Jan 23, 5:50 AM)29.98 "Hg (Jan 23, 5:50 AM)
Low76 °F (Feb 4, 3:52 AM)62% (Jan 29, 12:51 PM)29.76 "Hg (Feb 5, 2:51 PM)
Average82 °F77%29.87 "Hg
* Reported Jan 22 7:51 PM — Feb 6 7:51 PM, Kolonia, Weather by CustomWeather, © 2016

Note: Actual official high and low records may vary slightly from our data, if they occured in-between our weather recording intervals... More about our weather records

Advertising

Kolonia Weather History for the Previous 24 Hours

 ConditionsComfort  
Time TempWeatherWind HumidityBarometerVisibility
7:51 PM
Sat, Feb 6
82 °FPartly cloudy.7 mph77%29.83 "Hg15 mi
6:52 PM82 °FPartly cloudy.8 mph75%29.80 "Hg15 mi
5:53 PM83 °FBroken clouds.5 mph79%29.80 "Hg15 mi
4:55 PM84 °FBroken clouds.10 mph76%29.78 "Hg15 mi
3:50 PM84 °FMostly cloudy.8 mph78%29.78 "Hg15 mi
2:53 PM83 °FMostly cloudy.7 mph79%29.77 "Hg15 mi
1:53 PM80 °FSprinkles. Mostly cloudy.8 mph86%29.80 "Hg10 mi
12:52 PM84 °FSprinkles. Cloudy.12 mph76%29.82 "Hg14 mi
11:51 AM83 °FMore clouds than sun.5 mph79%29.85 "Hg15 mi
10:53 AM85 °FScattered clouds.8 mph69%29.86 "Hg15 mi
9:53 AM85 °FPassing clouds.5 mph74%29.86 "Hg15 mi
8:50 AM83 °FPassing clouds.7 mph75%29.85 "Hg15 mi
7:51 AM82 °FScattered clouds.5 mph76%29.83 "Hg15 mi
6:51 AM81 °FMostly cloudy.9 mph78%29.81 "Hg15 mi
5:52 AM81 °FMostly cloudy.8 mph78%29.80 "Hg15 mi
4:51 AM80 °FMostly cloudy.10 mph80%29.79 "Hg15 mi
3:50 AM81 °FMostly cloudy.13 mph80%29.79 "Hg15 mi
2:52 AM82 °FMostly cloudy.9 mph76%29.80 "Hg15 mi
1:52 AM82 °FMostly cloudy.7 mph77%29.81 "Hg15 mi
12:50 AM81 °FMostly cloudy.8 mph75%29.84 "Hg15 mi
11:51 PM
Fri, Feb 5
81 °FMostly cloudy.7 mph75%29.85 "Hg15 mi
10:51 PM80 °FMostly cloudy.5 mph79%29.85 "Hg15 mi
9:50 PM81 °FOvercast.6 mph78%29.85 "Hg15 mi
Weather by CustomWeather, © 2016

See weather overviewHow to use our weather pages